| time (UTC) | temp C | wind direction | speed KPH | gust KPH | rain 1hr cm | rain 24hr cm | rain mn cm | humidity % | barometer mb |
| 20260506175010 | 10 | 135 | 1.6 | 4.8 | 0.13 | 2.08 | 2.08 | 98 | 10.9 |
| 20260506174010 | 10 | 135 | 3.2 | 6.4 | 0.13 | 2.06 | 2.06 | 98 | 10.8 |
| 20260506171010 | 10 | 157 | 0.0 | 6.4 | 0.10 | 2.03 | 2.03 | 98 | 10.8 |
| 20260506170011 | 10 | 180 | 1.6 | 8.0 | 0.08 | 2.01 | 2.01 | 98 | 10.8 |
| 20260506165010 | 10 | 0 | 0.0 | 0.0 | 0.05 | 1.96 | 1.96 | 98 | 10.6 |
| 20260506164010 | 10 | 0 | 0.0 | 0.0 | 0.10 | 1.93 | 1.93 | 98 | 10.5 |
| 20260506163010 | 10 | 0 | 0.0 | 0.0 | 0.61 | 1.93 | 1.93 | 97 | 10.5 |
| 20260506162010 | 10 | 0 | 0.0 | 0.0 | 0.84 | 1.93 | 1.93 | 97 | 10.5 |
| 20260506161010 | 10 | 22 | 4.8 | 6.4 | 0.86 | 1.93 | 1.93 | 97 | 10.4 |
| 20260506155010 | 10 | 0 | 0.0 | 0.0 | 0.89 | 1.91 | 1.91 | 96 | 10.6 |
| 20260506152005 | 12 | 270 | 4.8 | 19.3 | 0.08 | 1.09 | 1.09 | 94 | 10.4 |
| 20260506151005 | 12 | 135 | 11.3 | 17.7 | 0.05 | 1.07 | 1.07 | 95 | 9.7 |
| 20260506145005 | 12 | 157 | 8.0 | 16.1 | 0.00 | 1.02 | 1.02 | 93 | 9.8 |
| 20260506143005 | 13 | 157 | 11.3 | 17.7 | 0.00 | 1.02 | 1.02 | 92 | 9.6 |
| 20260506142005 | 14 | 157 | 11.3 | 17.7 | 0.00 | 1.02 | 1.02 | 93 | 9.5 |
| 20260506141005 | 13 | 157 | 9.7 | 16.1 | 0.05 | 1.02 | 1.02 | 94 | 9.6 |
| 20260506140005 | 13 | 157 | 9.7 | 16.1 | 0.05 | 1.02 | 1.02 | 95 | 9.8 |
| 20260506135005 | 13 | 157 | 8.0 | 17.7 | 0.05 | 1.02 | 1.02 | 94 | 9.8 |
| 20260506133005 | 13 | 157 | 8.0 | 14.5 | 0.05 | 1.02 | 1.02 | 95 | 9.9 |
| 20260506132005 | 13 | 157 | 4.8 | 14.5 | 0.05 | 1.02 | 1.02 | 94 | 9.9 |
| 20260506131004 | 13 | 157 | 6.4 | 16.1 | 0.00 | 0.99 | 0.99 | 93 | 9.9 |
| 20260506130005 | 13 | 157 | 6.4 | 14.5 | 0.00 | 0.99 | 0.99 | 95 | 9.8 |
| 20260506125005 | 13 | 157 | 9.7 | 14.5 | 0.00 | 0.99 | 0.99 | 95 | 9.8 |
| 20260506124005 | 13 | 157 | 8.0 | 17.7 | 0.03 | 0.99 | 0.99 | 95 | 9.8 |
| 20260506122004 | 12 | 180 | 4.8 | 12.9 | 0.03 | 0.99 | 0.99 | 96 | 9.9 |
| 20260506121004 | 12 | 157 | 4.8 | 12.9 | 0.05 | 0.99 | 0.99 | 96 | 9.9 |
| 20260506115005 | 12 | 157 | 3.2 | 11.3 | 0.08 | 0.99 | 0.99 | 97 | 10.0 |
| 20260506113004 | 11 | 157 | 4.8 | 11.3 | 0.10 | 0.97 | 0.97 | 98 | 10.1 |
| 20260506112004 | 11 | 157 | 3.2 | 11.3 | 0.13 | 0.97 | 0.97 | 98 | 10.2 |
| 20260506111004 | 11 | 180 | 3.2 | 9.7 | 0.13 | 0.94 | 0.94 | 98 | 10.2 |
| 20260506110005 | 11 | 180 | 1.6 | 9.7 | 0.13 | 0.91 | 0.91 | 98 | 10.1 |
| 20260506105004 | 11 | 202 | 3.2 | 11.3 | 0.15 | 0.89 | 0.89 | 98 | 10.2 |
| 20260506104004 | 11 | 225 | 3.2 | 11.3 | 0.20 | 0.89 | 0.89 | 98 | 10.1 |
| 20260506103004 | 11 | 202 | 3.2 | 9.7 | 0.20 | 0.86 | 0.86 | 98 | 10.1 |
| 20260506102004 | 11 | 225 | 3.2 | 8.0 | 0.20 | 0.84 | 0.84 | 98 | 9.9 |
| 20260506101004 | 11 | 225 | 3.2 | 8.0 | 0.20 | 0.81 | 0.81 | 98 | 9.8 |
| 20260506100005 | 11 | 225 | 1.6 | 9.7 | 0.20 | 0.79 | 0.79 | 98 | 9.7 |
| 20260506094004 | 11 | 225 | 1.6 | 6.4 | 0.15 | 0.71 | 0.71 | 99 | 9.5 |
| 20260506093004 | 11 | 225 | 1.6 | 4.8 | 0.15 | 0.66 | 0.66 | 99 | 9.5 |
| 20260506092004 | 11 | 202 | 1.6 | 6.4 | 0.15 | 0.64 | 0.64 | 98 | 9.3 |
| 20260506091005 | 11 | 202 | 1.6 | 4.8 | 0.15 | 0.61 | 0.61 | 98 | 9.3 |
| 20260506090005 | 11 | 225 | 0.0 | 4.8 | 0.15 | 0.61 | 0.61 | 98 | 9.2 |
| 20260506085004 | 11 | 202 | 1.6 | 8.0 | 0.18 | 0.58 | 0.58 | 98 | 9.0 |
| 20260506084004 | 11 | 225 | 3.2 | 9.7 | 0.18 | 0.53 | 0.53 | 98 | 8.9 |
| 20260506083004 | 11 | 225 | 6.4 | 12.9 | 0.20 | 0.51 | 0.51 | 98 | 8.8 |
| 20260506081004 | 11 | 225 | 4.8 | 9.7 | 0.23 | 0.46 | 0.46 | 98 | 8.6 |
| 20260506073004 | 11 | 225 | 9.7 | 16.1 | 0.23 | 0.33 | 0.33 | 99 | 8.2 |
| 20260506072004 | 11 | 225 | 8.0 | 16.1 | 0.20 | 0.25 | 0.25 | 99 | 8.1 |
| 20260506071004 | 11 | 225 | 8.0 | 17.7 | 0.15 | 0.23 | 0.23 | 99 | 7.9 |
| 20260506062004 | 11 | 202 | 0.0 | 4.8 | 0.05 | 0.05 | 0.05 | 99 | 7.6 |
| 20260506061004 | 11 | 202 | 0.0 | 3.2 | 0.05 | 0.05 | 0.05 | 99 | 7.5 |
| 20260506045004 | 11 | 0 | 0.0 | 0.0 | 0.00 | 0.03 | 0.03 | 99 | 7.1 |
| 20260506044004 | 11 | 0 | 0.0 | 0.0 | 0.00 | 0.03 | 0.03 | 99 | 7.1 |
| 20260506043004 | 11 | 0 | 0.0 | 0.0 | 0.00 | 0.03 | 0.03 | 99 | 7.2 |
| 20260506042004 | 11 | 0 | 0.0 | 0.0 | 0.00 | 0.03 | 0.03 | 99 | 7.3 |
| 20260506041004 | 11 | 0 | 0.0 | 0.0 | 0.00 | 0.03 | 0.03 | 98 | 7.3 |
| 20260506040004 | 11 | 0 | 0.0 | 0.0 | 0.00 | 0.03 | 0.03 | 98 | 7.3 |
| 20260506035004 | 11 | 0 | 0.0 | 0.0 | 0.00 | 0.03 | 0.03 | 98 | 7.3 |
| 20260506034004 | 11 | 202 | 0.0 | 4.8 | 0.00 | 0.03 | 0.03 | 98 | 7.3 |
| 20260506033004 | 11 | 0 | 0.0 | 0.0 | 0.00 | 0.03 | 0.03 | 98 | 7.3 |
| 20260506032004 | 11 | 0 | 0.0 | 0.0 | 0.00 | 0.03 | 0.03 | 98 | 7.4 |
| 20260506031004 | 11 | 360 | 0.0 | 4.8 | 0.00 | 0.03 | 0.03 | 98 | 7.5 |
| 20260506030004 | 11 | 0 | 0.0 | 0.0 | 0.00 | 0.03 | 0.03 | 98 | 7.7 |
| 20260506025004 | 11 | 0 | 0.0 | 0.0 | 0.00 | 0.03 | 0.03 | 98 | 7.6 |
| 20260506024004 | 11 | 0 | 0.0 | 0.0 | 0.00 | 0.03 | 0.03 | 98 | 7.8 |
| 20260506023004 | 11 | 0 | 0.0 | 0.0 | 0.00 | 0.03 | 0.03 | 98 | 7.7 |
| 20260506022004 | 11 | 0 | 0.0 | 0.0 | 0.00 | 0.03 | 0.03 | 97 | 7.7 |
| 20260506021004 | 11 | 0 | 0.0 | 0.0 | 0.00 | 0.03 | 0.03 | 97 | 7.9 |
| 20260506020004 | 11 | 0 | 0.0 | 0.0 | 0.00 | 0.03 | 0.03 | 97 | 7.9 |
| 20260506015004 | 11 | 360 | 0.0 | 3.2 | 0.00 | 0.03 | 0.03 | 97 | 8.0 |
| 20260506014004 | 11 | 180 | 0.0 | 6.4 | 0.00 | 0.03 | 0.03 | 97 | 8.1 |
| 20260506013004 | 11 | 157 | 1.6 | 8.0 | 0.00 | 0.03 | 0.03 | 97 | 8.1 |
| 20260506012004 | 11 | 157 | 4.8 | 9.7 | 0.00 | 0.03 | 0.03 | 96 | 8.3 |
| 20260506010004 | 11 | 157 | 1.6 | 9.7 | 0.00 | 0.03 | 0.03 | 96 | 8.7 |
| 20260506005004 | 11 | 157 | 3.2 | 8.0 | 0.00 | 0.03 | 0.03 | 96 | 8.7 |
| 20260506004004 | 11 | 202 | 0.0 | 4.8 | 0.00 | 0.03 | 0.03 | 95 | 8.8 |
| 20260506003004 | 11 | 157 | 1.6 | 6.4 | 0.00 | 0.03 | 0.03 | 95 | 8.9 |
| 20260506002003 | 11 | 0 | 0.0 | 0.0 | 0.00 | 0.03 | 0.03 | 95 | 9.0 |
| 20260506001004 | 11 | 157 | 0.0 | 1.6 | 0.00 | 0.03 | 0.03 | 94 | 9.1 |
| 20260506000004 | 11 | 157 | 4.8 | 8.0 | 0.00 | 0.03 | 0.03 | 94 | 9.1 |
| 20260505235004 | 11 | 135 | 1.6 | 4.8 | 0.00 | 0.03 | 0.03 | 95 | 9.1 |
| 20260505234004 | 11 | 0 | 0.0 | 0.0 | 0.00 | 0.03 | 0.03 | 96 | 9.2 |
| 20260505233004 | 11 | 0 | 0.0 | 0.0 | 0.00 | 0.03 | 0.03 | 95 | 9.2 |
| 20260505232004 | 12 | 0 | 0.0 | 0.0 | 0.00 | 0.03 | 0.03 | 95 | 9.3 |
| 20260505231003 | 12 | 135 | 0.0 | 1.6 | 0.03 | 0.03 | 0.03 | 95 | 9.5 |
| 20260505230004 | 12 | 157 | 3.2 | 11.3 | 0.03 | 0.03 | 0.03 | 96 | 9.6 |
| 20260505225003 | 12 | 180 | 1.6 | 6.4 | 0.03 | 0.03 | 0.03 | 96 | 9.8 |
| 20260505224003 | 12 | 157 | 4.8 | 11.3 | 0.03 | 0.03 | 0.03 | 97 | 9.9 |
| 20260505223003 | 12 | 180 | 0.0 | 3.2 | 0.03 | 0.03 | 0.03 | 97 | 9.6 |
| 20260505222003 | 12 | 0 | 0.0 | 0.0 | 0.03 | 0.03 | 0.03 | 97 | 9.7 |
| 20260505221003 | 12 | 0 | 0.0 | 0.0 | 0.00 | 0.00 | 0.00 | 97 | 9.7 |
| 20260505220003 | 12 | 0 | 0.0 | 0.0 | 0.25 | 1.02 | 1.02 | 96 | 9.7 |
| 20260505214004 | 12 | 270 | 4.8 | 16.1 | 0.23 | 0.99 | 0.99 | 95 | 9.7 |
| 20260505213003 | 13 | 247 | 8.0 | 19.3 | 0.13 | 0.89 | 0.89 | 96 | 9.8 |
| 20260505212003 | 13 | 247 | 3.2 | 9.7 | 0.00 | 0.76 | 0.76 | 97 | 9.8 |
| 20260505211004 | 13 | 202 | 1.6 | 4.8 | 0.00 | 0.76 | 0.76 | 97 | 9.8 |
| 20260505210004 | 13 | 225 | 0.0 | 4.8 | 0.00 | 0.76 | 0.76 | 96 | 9.7 |
| 20260505202003 | 12 | 157 | 1.6 | 6.4 | 0.00 | 0.76 | 0.76 | 96 | 9.2 |
| 20260505201004 | 12 | 135 | 4.8 | 8.0 | 0.00 | 0.76 | 0.76 | 96 | 9.0 |
| 20260505200003 | 12 | 0 | 0.0 | 0.0 | 0.00 | 0.76 | 0.76 | 96 | 8.9 |
| 20260505195004 | 12 | 0 | 0.0 | 0.0 | 0.00 | 0.76 | 0.76 | 96 | 8.9 |
| 20260505194003 | 12 | 0 | 0.0 | 0.0 | 0.00 | 0.76 | 0.76 | 96 | 8.9 |
| 20260505193003 | 12 | 0 | 0.0 | 0.0 | 0.00 | 0.76 | 0.76 | 95 | 8.7 |
| 20260505192003 | 13 | 0 | 0.0 | 0.0 | 0.00 | 0.76 | 0.76 | 95 | 8.6 |
| 20260505191003 | 13 | 0 | 0.0 | 0.0 | 0.00 | 0.76 | 0.76 | 94 | 8.4 |
| 20260505190004 | 13 | 0 | 0.0 | 0.0 | 0.00 | 0.76 | 0.76 | 92 | 8.4 |
| 20260505185003 | 13 | 0 | 0.0 | 0.0 | 0.00 | 0.76 | 0.76 | 91 | 8.4 |
| 20260505184003 | 13 | 157 | 0.0 | 3.2 | 0.00 | 0.76 | 0.76 | 92 | 8.3 |
| 20260505183003 | 14 | 157 | 3.2 | 8.0 | 0.00 | 0.76 | 0.76 | 92 | 8.2 |
| 20260505182003 | 14 | 157 | 4.8 | 9.7 | 0.00 | 0.76 | 0.76 | 91 | 8.3 |
| 20260505181003 | 15 | 157 | 4.8 | 9.7 | 0.00 | 0.76 | 0.76 | 91 | 8.3 |
| 20260505180003 | 15 | 157 | 3.2 | 11.3 | 0.00 | 0.76 | 0.76 | 90 | 8.3 |